Flag for U.S.A. Weather past 2 weeks in Boston, Massachusetts, U.S.A.

Now
65 °F

Scattered clouds.


Feels Like: 65 °F
Forecast: 60 / 81 °F
Wind: 6 mph from East

Location: Logan International Airport

Current Time: Jul 4, 2015 at 8:12:04 PM

Latest Report: Jul 4, 2015 at 7:54 PM


Visibility: 10 mi

Pressure: 29.95 "Hg

Humidity: 70%

Dew point: 55 °F

Location of BostonLocation

Historic Weather in Boston — Graph

°F

Boston temperature yesterday

Maximum temperature yesterday: 76 °F (at 11:54 AM)
Minimum temperature yesterday: 63 °F (at 4:54 AM)
Average temperature yesterday: 70 °F

Past Weeks' High & Low Weather Summary

 TemperatureHumidityPressure
High86 °F (Jun 23, 4:54 PM)100% (Jun 21, 6:54 AM)30.19 "Hg (Jun 21, 6:54 AM)
Low53 °F (Jun 28, 10:54 PM)29% (Jun 24, 6:54 PM)29.63 "Hg (Jun 21, 3:54 PM)
Average68 °F72%29.91 "Hg
* Reported Jun 19 6:54 PM — Jul 4 6:54 PM, Boston, Weather by CustomWeather, © 2015

Note: Actual official high and low records may vary slightly from our data, if they occured in-between our weather recording intervals... More about our weather records

Advertising

Boston weather history for previous 24 hours

 ConditionsComfort  
Time TempWeatherWind HumidityBarometerVisibility
6:54 PM
Sat, Jul 4
68 °FPartly sunny.5 mph63%29.95 "Hg10 mi
5:54 PM67 °FBroken clouds.5 mph71%29.95 "Hg10 mi
4:54 PM66 °FMore clouds than sun.7 mph78%29.96 "Hg10 mi
3:54 PM67 °FOvercast.7 mph73%29.97 "Hg10 mi
2:54 PM68 °FOvercast.7 mph70%29.98 "Hg10 mi
1:54 PM68 °FOvercast.8 mph76%29.98 "Hg10 mi
12:54 PM70 °FOvercast.8 mph71%29.98 "Hg10 mi
11:54 AM72 °FMostly cloudy.5 mph66%29.98 "Hg10 mi
10:54 AM70 °FCloudy.No wind66%30.00 "Hg10 mi
9:54 AM68 °FMostly cloudy.No wind76%29.99 "Hg10 mi
8:54 AM66 °FOvercast.5 mph87%29.99 "Hg10 mi
7:54 AM66 °FMostly cloudy.5 mph78%30.00 "Hg10 mi
6:54 AM65 °FMostly cloudy.5 mph78%29.99 "Hg10 mi
5:54 AM64 °FOvercast.5 mph81%30.00 "Hg10 mi
4:54 AM64 °FPassing clouds.5 mph81%30.00 "Hg10 mi
3:54 AM62 °FClear.7 mph80%30.00 "Hg10 mi
2:54 AM62 °FClear.6 mph80%30.00 "Hg10 mi
11:54 PM
Fri, Jul 3
65 °FPassing clouds.8 mph70%30.00 "Hg10 mi
10:54 PM66 °FPassing clouds.8 mph68%29.98 "Hg10 mi
9:54 PM70 °FPassing clouds.13 mph61%29.98 "Hg10 mi
8:54 PM68 °FPartly sunny.6 mph65%29.96 "Hg10 mi
Weather by CustomWeather, © 2015

See weather overviewHow to use our weather pages